{"data":{"norad_id":69620,"intl_designator":"2026-140AE","name":"KUIPER-00555","alt_names":[],"object_type":"PAYLOAD","status":"ACTIVE","operator":null,"country":"US","launch_date":"2026-06-17","launch_site_code":"FRGUI","launch_vehicle":null,"mission":null,"orbit_class":"UNKNOWN","rcs_meters":null,"size_class":null,"mass_kg":null,"dimensions":null,"purposes":[],"wikipedia_slug":null,"has_3d_model":false,"image_url":null,"decayed_at":null,"tle_current":{"epoch":"2026-09-20T02:37:58.804032Z","epoch_age_seconds":62698,"freshness":"FRESH","line1":"1 69620U 26140AE  26263.10970838  .00017688  00000+0  48827-3 0  9992","line2":"2 69620  51.8871 299.2432 0010170 149.6451 210.5127 15.37108191 15847","mean_motion":15.37108191,"eccentricity":0.001017,"inclination_deg":51.8871,"raan_deg":299.2432,"arg_perigee_deg":149.6451,"mean_anomaly_deg":210.5127,"bstar":0.00048827,"rev_number":1584,"period_min":93.682410153782,"perigee_km":447.71678598323,"apogee_km":461.61470676936,"semimajor_km":6832.8027463763,"source":"CELESTRAK","updated_at":"2026-09-20T09:00:25.030059Z"}}}